Location: Strawberry
(45.6646°N, 111.9596°W)
Time: 17:04:15
(UTC+00:00)

RS-15 - Pass Details

Date: 04 December 2022
Orbit: 1883 x 2162 km, 64.8° (Epoch: 05 February)

Event Time Altitude Azimuth Distance (km) Brightness Sun altitude
Rises 06:20:27 0° 319° (NW) 5,653 10.8 -63.8°
Reaches altitude 10° 06:25:00 10° 306° (NW) 4,613 10.2 -64.2°
Enters shadow 06:28:22 17° 292° (WNW) 4,020 9.8 -64.5°
